Location: Lane
(33.5226°N, 79.8788°W)
Time: 20:28:32
(UTC+00:00)

SR - Pass Details

Date: 02 October 2022
Orbit: 577 x 874 km, 66.7° (Epoch: 08 December)

Event Time Altitude Azimuth Distance (km) Brightness Sun altitude
Rises 00:37:43 0° 163° (SSE) 3,366 - -20.4°
Reaches altitude 10° 00:40:55 10° 145° (SE) 2,473 - -21.0°
Maximum altitude 00:44:39 18° 104° (ESE) 2,001 - -21.8°
Drops below altitude 10° 00:48:27 10° 63° (ENE) 2,525 - -22.5°
Sets 00:51:44 0° 46° (NE) 3,467 - -23.2°
